{"data":{"norad_id":57533,"epoch":"2026-05-24T16:37:00.140736Z","epoch_age_seconds":91746,"freshness":"FRESH","line1":"1 57533U 23115N   26144.69236274  .00003569  00000+0  13925-3 0  9996","line2":"2 57533  43.0040  33.9398 0001107 269.2185  90.8540 15.27562014156981","mean_motion":15.27562014,"eccentricity":0.0001107,"inclination_deg":43.004,"raan_deg":33.9398,"arg_perigee_deg":269.2185,"mean_anomaly_deg":90.854,"bstar":0.00013925,"rev_number":15698,"period_min":94.267858640271,"perigee_km":482.34341385971,"apogee_km":483.86249238533,"semimajor_km":6861.2399531225,"source":"CELESTRAK","updated_at":"2026-05-25T13:38:18.334549Z"}}